User: anonymous   Login
Location: Unspecified
(0.0000°N, 0.0000°E)
Time: 08:53:28
(UTC+00:00)
Language:

AALTO 1 - Orbit

View from above orbital plane
View from above orbital plane
View from above satellite
View from above satellite

Ground track
Ground track

The orbit data is extracted from the following two-line orbital elements,

1 42775U 17036L   18267.71378630 +.00000880 +00000-0 +42808-4 0  9993
2 42775 097.3902 325.2250 0015823 078.0247 282.2761 15.20903657069622
Epoch (UTC): 24 September 2018 17:07:51
Eccentricity: 0.0015823
inclination: 97.3902°
perigee height: 492 km
apogee height: 514 km
right ascension of ascending node: 325.2250°
argument of perigee: 78.0247°
revolutions per day: 15.20903657
mean anomaly at epoch: 282.2761°
orbit number at epoch: 6962

The dashed part of the orbit path shows where the satellite is in the earth's shadow,  

DLR